SCP
0 0 0 0 0 0 0 -0 -0 0 0 0 -0 -0 -0 -0 -0 0 0 0 0 0 0 0 0 0 0 0 0 0 0 0 -0 0 0 0 0 0
0 0 0 0 0 0 0 0 -0 -0 -0 -0 -0 -0 -0 -0 -0 -0 0 0 0 0 0 0 0 0 0 0 0 0 0 0 -0 -0 0 0 0 0
0 -0 0 0 0 0 0 0 0 -0 -0 -0 -0 -0 -0 0 0 0 0 0 0 0 0 0 0 0 0 0 0 0 0 -0 -0 -0 -0 -0 0 0
0 0 0 0 -0 -0 -0 0 0 0 -0 -0 -0 -0 0 0 0 0 0 0 0 0 0 0 0 0 0 0 0 0 0 -0 -0 -0 -0 -0 -0 0
0 0 0 0 0 0 0 0 0 0 0 0 0 0 0 0 0 0 0 -0 0 0 0 0 0 0 0 0 0 0 0 0 -0 -0 -0 -0 -0 -0
-0 0 0 0 0 0 0 0 0 0 0 0 0 0 0 0 0 0 -0 -0 -0 0 0 0 0 0 0 0 0 0 0 0 -0 -0 -0 0 0 0
0 0 0 0 0 0 0 0 0 0 0 0 0 0 0 0 0 0 0 -0 0 0 0 0 0 0 0 0 0 0 0 0 -0 -0 -0 -0 -0 0
0 0 0 0 0 -0 0 0 0 0 0 0 0 0 0 0 0 0 0 0 0 0 0 0 0 0 0 0 0 0 -0 0 0 -0 -0 -0 -0 -0
0 0 0 0 0 0 0 0 0 0 0 0 0 0 0 0 0 0 0 0 0 0 0 0 0 0 0 0 0 -0 -0 0 0 0 0 -0 -0 -0
0 0 0 0 0 0 0 0 0 0 0 0 0 0 0 0 0 0 0 0 0 0 0 0 0 0 0 0 0 -0 0 0 0 0 0 0 -0 -0
0 0 0 0 0 0 0 0 0 0 0 0 0 0 0 0 0 0 0 0 0 0 0 0 0 0 0 0 0 0 0 0 0 0 0 0 0 0
0 0 0 0 0 0 0 0 0 0 0 0 0 0 0 0 0 0 0 0 0 0 0 0 0 0 0 0 0 0 0 0 0 0 0 0 0 0
0 0 0 0 0 0 0 0 0 0 0 0 0 0 0 0 0 0 0 0 0 0 0 0 0 0 0 0 0 0 0 0 0 0 0 0 0 0
0 0 0 0 0 0 0 0 -0 0 0 0 0 0 0 0 1 1 1 0 0 1 1 0 0 0 0 0 0 0 0 0 0 0 0 0 0 0
0 0 0 0 0 0 0 0 0 0 0 0 0 0 0 0 0 0 0 0 0 0 0 0 0 0 0 0 0 0 0 0 0 0 0 0 0 0
0 0 0 0 0 0 0 0 0 0 0 0 0 0 0 0 0 0 0 0 0 0 0 0 0 0 0 0 1 0 0 0 0 0 0 0 0 0
0 0 0 0 0 0 0 0 0 0 0 0 0 0 0 0 0 0 0 0 0 0 0 0 0 1 1 1 1 1 1 0 0 0 0 0 0 0
0 0 0 0 0 0 0 0 0 0 0 0 0 0 0 0 0 0 0 0 0 0 0 0 0 0 2 2 1 1 1 1 1 0 0 0 0 0
0 0 0 0 0 0 0 0 0 0 0 0 0 0 0 1 0 0 0 0 1 1 1 0 0 0 0 0 1 0 2 2 2 0 0 0 0 0
0 0 0 0 0 0 0 0 0 0 0 0 0 0 0 0 0 0 0 0 0 0 0 0 0 0 0 0 0 0 0 2 2 1 0 0 0 0
0 0 0 0 0 0 0 0 0 0 0 0 0 0 0 0 0 0 0 0 0 0 0 0 0 0 0 0 0 0 0 0 2 2 1 1 0 0
0 0 0 0 0 0 0 0 0 0 0 0 0 0 0 0 0 0 0 0 0 0 0 0 0 0 0 0 0 0 0 0 0 0 0 0 1 0
0 0 0 0 0 0 0 0 0 0 0 0 0 0 0 0 0 0 0 0 0 0 0 0 0 0 0 0 0 0 0 0 0 0 0 0 0 0
Wind_Speed_500mb
20 15 9 5 7 2 5 10 12 13 15 11 21 23 31 39 34 23 26 26 31 36 34 36 47 53 59 58 44 25 13 20 26 24 29 27 38 36
31 27 24 19 13 10 12 15 17 19 21 28 28 34 37 37 22 18 22 23 26 28 32 31 38 48 49 58 51 31 14 12 21 19 26 28 37 37
33 33 30 29 29 26 20 20 21 22 28 33 33 35 35 27 23 21 26 21 24 25 32 32 31 42 40 46 52 40 20 6 14 15 20 28 35 35
23 29 28 26 24 26 31 34 32 33 36 40 40 41 28 35 30 26 20 23 27 27 32 27 31 38 34 37 43 43 29 9 5 12 16 26 33 32
18 18 20 21 22 20 18 18 25 34 37 41 42 41 40 28 23 27 30 31 35 33 33 32 30 34 28 32 32 38 30 21 9 7 15 22 31 33
27 23 21 21 18 14 15 19 21 25 28 33 37 39 34 27 35 43 40 37 34 36 28 24 29 23 24 30 28 30 30 24 17 10 14 22 29 35
29 30 32 31 26 24 30 33 30 32 35 36 35 35 34 35 38 39 42 41 33 31 24 30 22 18 25 31 32 27 28 22 19 16 16 18 28 38
33 28 28 34 34 34 34 33 37 39 38 40 41 43 40 40 38 36 33 40 45 31 45 37 34 26 24 28 30 30 26 22 20 17 18 20 24 34
44 40 38 38 36 36 39 42 42 37 37 40 47 47 46 36 33 34 36 42 46 45 50 54 44 35 32 27 30 29 27 25 24 22 22 21 24 31
48 46 49 51 51 50 50 50 48 48 48 49 52 54 52 50 48 50 47 51 56 56 56 56 41 36 31 32 26 24 26 30 28 26 26 26 26 30
57 58 59 59 56 55 57 61 63 62 56 56 61 63 60 58 58 56 57 61 72 66 61 56 36 43 40 33 34 38 33 35 38 33 32 31 31 32
56 58 54 51 54 55 53 52 56 56 53 52 52 52 50 53 51 52 53 60 62 66 52 51 56 52 61 55 53 43 35 38 42 46 41 37 37 39
49 51 54 59 59 57 55 52 55 57 62 64 65 65 62 57 55 52 53 54 57 62 51 52 59 56 63 66 60 53 54 50 51 48 46 44 44 46
40 44 46 51 53 55 56 55 61 68 67 68 67 69 67 67 65 62 59 59 61 64 61 58 66 67 72 76 73 63 59 57 56 50 52 54 53 51
37 42 45 48 51 51 55 56 57 62 63 66 70 82 81 79 78 78 76 75 75 74 70 67 70 71 74 81 80 70 65 58 55 56 52 48 53 56
40 42 41 41 44 49 53 52 50 50 54 63 67 65 61 58 61 63 69 70 76 81 76 67 64 63 65 70 72 76 65 66 53 54 58 57 54 55
40 41 43 43 45 43 40 38 38 42 50 55 57 60 60 59 60 54 58 61 65 65 60 55 53 56 57 57 67 69 71 70 63 62 64 63 62 58
46 44 43 44 44 42 41 41 39 38 39 43 49 58 64 63 63 64 63 63 68 68 68 60 54 51 53 58 61 64 68 69 66 65 64 65 65 58
51 51 51 48 45 43 40 39 40 36 34 35 41 48 52 57 60 62 63 63 67 70 74 64 61 64 59 72 62 61 66 69 68 72 71 69 70 64
53 52 51 50 43 40 45 50 50 51 45 42 47 47 47 55 59 62 63 69 72 77 80 79 71 68 63 71 66 69 69 70 72 76 76 72 72 69
54 49 49 51 50 53 58 60 61 60 59 53 46 48 53 57 63 68 65 67 68 72 76 83 76 85 91 78 73 74 76 72 73 74 72 66 65 70
46 43 53 55 55 58 61 65 68 65 64 64 59 53 55 53 56 56 57 63 65 66 74 76 74 77 87 83 82 74 66 64 66 63 65 64 64 74
43 48 57 57 55 63 59 62 67 70 69 67 69 66 62 61 62 56 61 66 62 57 67 76 78 67 78 86 79 75 74 65 52 53 63 58 65 71
Wind_Direction_500mb
232 224 226 174 128 127 338 333 342 331 315 307 338 328 324 331 338 354 5 11 360 358 1 7 13 17 22 25 27 38 78 141 158 171 166 174 175 177
238 235 241 248 244 236 253 278 299 301 310 310 314 322 325 329 323 320 338 352 351 353 2 359 7 11 16 23 27 30 44 141 167 169 166 170 177 182
227 236 241 254 257 261 259 268 267 292 299 294 305 312 326 332 327 327 333 344 348 352 355 356 359 4 5 10 22 27 26 116 163 167 166 172 186 191
232 241 237 249 261 269 270 261 268 276 288 293 296 304 313 331 344 348 351 337 338 342 347 353 351 357 360 358 9 18 23 21 201 188 179 181 192 197
234 243 240 256 267 279 276 278 279 280 286 288 292 297 307 310 320 324 330 326 328 328 329 331 337 345 351 354 353 6 14 9 322 225 210 198 198 203
242 247 254 254 258 273 298 301 302 306 307 292 289 295 304 306 314 318 318 319 327 328 336 330 328 335 338 345 341 349 1 4 348 290 251 215 211 212
255 258 262 259 260 266 281 285 291 299 305 306 303 306 310 314 316 322 321 324 334 340 340 335 331 321 325 325 328 327 343 355 350 334 289 256 227 220
262 264 269 266 267 263 265 270 282 291 298 300 304 304 310 316 320 320 325 327 328 342 331 332 320 298 301 322 317 305 313 329 341 332 318 289 262 238
261 265 267 267 273 275 274 272 270 280 286 289 290 294 300 313 314 314 313 311 312 321 324 325 330 300 285 287 312 296 286 303 317 324 317 303 290 269
258 261 264 267 270 275 279 276 273 274 279 283 285 288 292 297 300 304 300 303 305 308 314 317 332 342 304 285 293 287 285 284 296 305 308 303 291 282
258 262 265 269 272 275 277 279 282 282 281 280 280 282 285 289 294 297 292 295 299 304 308 312 322 321 322 324 303 296 296 284 287 289 291 290 289 282
258 261 265 271 271 272 271 276 279 282 285 281 278 279 282 283 283 282 286 288 294 299 307 301 308 309 309 311 313 307 301 293 286 284 284 282 279 278
269 268 265 266 267 268 272 275 278 280 280 281 283 282 281 280 282 284 287 286 289 291 302 302 301 299 295 298 303 301 293 297 294 280 276 276 277 276
281 281 278 276 278 276 274 275 276 279 282 282 280 280 282 285 289 292 291 290 288 289 297 293 292 293 290 288 288 292 292 291 294 298 279 270 269 270
286 290 292 289 287 288 287 287 284 283 288 287 285 282 282 285 287 287 288 289 289 289 289 290 290 290 283 278 279 282 285 291 290 290 291 285 276 274
286 286 291 292 292 293 295 296 295 285 284 288 288 289 288 290 289 290 288 287 286 284 286 288 292 291 283 275 276 274 275 277 281 286 291 285 281 276
298 294 290 291 290 291 293 298 299 294 284 279 282 286 286 288 288 292 295 293 286 286 286 285 289 291 279 275 277 277 276 274 274 276 280 282 280 279
298 305 306 303 298 293 293 292 296 302 300 295 288 285 283 283 284 286 286 286 284 282 281 284 286 289 282 277 269 271 275 273 278 275 276 278 280 279
299 297 296 301 300 295 292 291 292 296 294 300 304 300 294 290 287 286 283 282 281 282 283 271 278 277 279 278 273 277 273 275 276 275 275 273 277 286
286 299 289 289 295 299 308 311 303 296 294 288 280 298 298 293 291 285 284 284 279 283 279 284 270 260 267 271 275 279 281 280 277 278 276 277 278 277
281 291 275 278 286 295 302 305 308 301 296 290 285 284 290 290 296 291 293 285 280 281 282 272 267 274 283 271 272 266 269 270 280 280 278 272 268 274
284 269 271 271 280 291 298 302 304 300 296 292 282 278 280 288 292 294 295 290 281 278 278 281 276 272 283 271 272 268 280 279 271 273 265 257 267 276
283 266 260 265 275 282 293 300 301 300 297 294 288 282 277 276 278 281 284 282 288 292 292 286 286 284 279 264 266 267 264 265 268 258 253 260 271 278
Wind_Speed_850mb
20 15 9 5 7 2 5 10 12 13 15 11 21 23 31 39 34 23 26 26 31 36 34 36 47 53 59 58 44 25 13 20 26 24 29 27 38 36
31 27 24 19 13 10 12 15 17 19 21 28 28 34 37 37 22 18 22 23 26 28 32 31 38 48 49 58 51 31 14 12 21 19 26 28 37 37
33 33 30 29 29 26 20 20 21 22 28 33 33 35 35 27 23 21 26 21 24 25 32 32 31 42 40 46 52 40 20 6 14 15 20 28 35 35
23 29 28 26 24 26 31 34 32 33 36 40 40 41 28 35 30 26 20 23 27 27 32 27 31 38 34 37 43 43 29 9 5 12 16 26 33 32
18 18 20 21 22 20 18 18 25 34 37 41 42 41 40 28 23 27 30 31 35 33 33 32 30 34 28 32 32 38 30 21 9 7 15 22 31 33
27 23 21 21 18 14 15 19 21 25 28 33 37 39 34 27 35 43 40 37 34 36 28 24 29 23 24 30 28 30 30 24 17 10 14 22 29 35
29 30 32 31 26 24 30 33 30 32 35 36 35 35 34 35 38 39 42 41 33 31 24 30 22 18 25 31 32 27 28 22 19 16 16 18 28 38
33 28 28 34 34 34 34 33 37 39 38 40 41 43 40 40 38 36 33 40 45 31 45 37 34 26 24 28 30 30 26 22 20 17 18 20 24 34
44 40 38 38 36 36 39 42 42 37 37 40 47 47 46 36 33 34 36 42 46 45 50 54 44 35 32 27 30 29 27 25 24 22 22 21 24 31
48 46 49 51 51 50 50 50 48 48 48 49 52 54 52 50 48 50 47 51 56 56 56 56 41 36 31 32 26 24 26 30 28 26 26 26 26 30
57 58 59 59 56 55 57 61 63 62 56 56 61 63 60 58 58 56 57 61 72 66 61 56 36 43 40 33 34 38 33 35 38 33 32 31 31 32
56 58 54 51 54 55 53 52 56 56 53 52 52 52 50 53 51 52 53 60 62 66 52 51 56 52 61 55 53 43 35 38 42 46 41 37 37 39
49 51 54 59 59 57 55 52 55 57 62 64 65 65 62 57 55 52 53 54 57 62 51 52 59 56 63 66 60 53 54 50 51 48 46 44 44 46
40 44 46 51 53 55 56 55 61 68 67 68 67 69 67 67 65 62 59 59 61 64 61 58 66 67 72 76 73 63 59 57 56 50 52 54 53 51
37 42 45 48 51 51 55 56 57 62 63 66 70 82 81 79 78 78 76 75 75 74 70 67 70 71 74 81 80 70 65 58 55 56 52 48 53 56
40 42 41 41 44 49 53 52 50 50 54 63 67 65 61 58 61 63 69 70 76 81 76 67 64 63 65 70 72 76 65 66 53 54 58 57 54 55
40 41 43 43 45 43 40 38 38 42 50 55 57 60 60 59 60 54 58 61 65 65 60 55 53 56 57 57 67 69 71 70 63 62 64 63 62 58
46 44 43 44 44 42 41 41 39 38 39 43 49 58 64 63 63 64 63 63 68 68 68 60 54 51 53 58 61 64 68 69 66 65 64 65 65 58
51 51 51 48 45 43 40 39 40 36 34 35 41 48 52 57 60 62 63 63 67 70 74 64 61 64 59 72 62 61 66 69 68 72 71 69 70 64
53 52 51 50 43 40 45 50 50 51 45 42 47 47 47 55 59 62 63 69 72 77 80 79 71 68 63 71 66 69 69 70 72 76 76 72 72 69
54 49 49 51 50 53 58 60 61 60 59 53 46 48 53 57 63 68 65 67 68 72 76 83 76 85 91 78 73 74 76 72 73 74 72 66 65 70
46 43 53 55 55 58 61 65 68 65 64 64 59 53 55 53 56 56 57 63 65 66 74 76 74 77 87 83 82 74 66 64 66 63 65 64 64 74
43 48 57 57 55 63 59 62 67 70 69 67 69 66 62 61 62 56 61 66 62 57 67 76 78 67 78 86 79 75 74 65 52 53 63 58 65 71
Wind_Direction_850mb
232 224 226 174 128 127 338 333 342 331 315 307 338 328 324 331 338 354 5 11 360 358 1 7 13 17 22 25 27 38 78 141 158 171 166 174 175 177
238 235 241 248 244 236 253 278 299 301 310 310 314 322 325 329 323 320 338 352 351 353 2 359 7 11 16 23 27 30 44 141 167 169 166 170 177 182
227 236 241 254 257 261 259 268 267 292 299 294 305 312 326 332 327 327 333 344 348 352 355 356 359 4 5 10 22 27 26 116 163 167 166 172 186 191
232 241 237 249 261 269 270 261 268 276 288 293 296 304 313 331 344 348 351 337 338 342 347 353 351 357 360 358 9 18 23 21 201 188 179 181 192 197
234 243 240 256 267 279 276 278 279 280 286 288 292 297 307 310 320 324 330 326 328 328 329 331 337 345 351 354 353 6 14 9 322 225 210 198 198 203
242 247 254 254 258 273 298 301 302 306 307 292 289 295 304 306 314 318 318 319 327 328 336 330 328 335 338 345 341 349 1 4 348 290 251 215 211 212
255 258 262 259 260 266 281 285 291 299 305 306 303 306 310 314 316 322 321 324 334 340 340 335 331 321 325 325 328 327 343 355 350 334 289 256 227 220
262 264 269 266 267 263 265 270 282 291 298 300 304 304 310 316 320 320 325 327 328 342 331 332 320 298 301 322 317 305 313 329 341 332 318 289 262 238
261 265 267 267 273 275 274 272 270 280 286 289 290 294 300 313 314 314 313 311 312 321 324 325 330 300 285 287 312 296 286 303 317 324 317 303 290 269
258 261 264 267 270 275 279 276 273 274 279 283 285 288 292 297 300 304 300 303 305 308 314 317 332 342 304 285 293 287 285 284 296 305 308 303 291 282
258 262 265 269 272 275 277 279 282 282 281 280 280 282 285 289 294 297 292 295 299 304 308 312 322 321 322 324 303 296 296 284 287 289 291 290 289 282
258 261 265 271 271 272 271 276 279 282 285 281 278 279 282 283 283 282 286 288 294 299 307 301 308 309 309 311 313 307 301 293 286 284 284 282 279 278
269 268 265 266 267 268 272 275 278 280 280 281 283 282 281 280 282 284 287 286 289 291 302 302 301 299 295 298 303 301 293 297 294 280 276 276 277 276
281 281 278 276 278 276 274 275 276 279 282 282 280 280 282 285 289 292 291 290 288 289 297 293 292 293 290 288 288 292 292 291 294 298 279 270 269 270
286 290 292 289 287 288 287 287 284 283 288 287 285 282 282 285 287 287 288 289 289 289 289 290 290 290 283 278 279 282 285 291 290 290 291 285 276 274
286 286 291 292 292 293 295 296 295 285 284 288 288 289 288 290 289 290 288 287 286 284 286 288 292 291 283 275 276 274 275 277 281 286 291 285 281 276
298 294 290 291 290 291 293 298 299 294 284 279 282 286 286 288 288 292 295 293 286 286 286 285 289 291 279 275 277 277 276 274 274 276 280 282 280 279
298 305 306 303 298 293 293 292 296 302 300 295 288 285 283 283 284 286 286 286 284 282 281 284 286 289 282 277 269 271 275 273 278 275 276 278 280 279
299 297 296 301 300 295 292 291 292 296 294 300 304 300 294 290 287 286 283 282 281 282 283 271 278 277 279 278 273 277 273 275 276 275 275 273 277 286
286 299 289 289 295 299 308 311 303 296 294 288 280 298 298 293 291 285 284 284 279 283 279 284 270 260 267 271 275 279 281 280 277 278 276 277 278 277
281 291 275 278 286 295 302 305 308 301 296 290 285 284 290 290 296 291 293 285 280 281 282 272 267 274 283 271 272 266 269 270 280 280 278 272 268 274
284 269 271 271 280 291 298 302 304 300 296 292 282 278 280 288 292 294 295 290 281 278 278 281 276 272 283 271 272 268 280 279 271 273 265 257 267 276
283 266 260 265 275 282 293 300 301 300 297 294 288 282 277 276 278 281 284 282 288 292 292 286 286 284 279 264 266 267 264 265 268 258 253 260 271 278